Time,TemperatureF,DewpointF,PressureIn,WindDirection,WindDirectionDegrees,WindSpeedMPH,WindSpeedGustMPH,Humidity,HourlyPrecipIn,Conditions,Clouds,dailyrainin,SoftwareType,DateUTC
2013-08-15 00:01:00,78.3,73.8,30.04,West,277,0.0,0.0,86,0.00,,---,0.00,VWS V14.01,2013-08-15 04:01:00,
2013-08-15 00:02:00,78.3,73.8,30.03,West,277,0.0,0.0,86,0.00,,---,0.00,VWS V14.01,2013-08-15 04:02:00,
2013-08-15 00:08:00,78.1,73.6,30.03,West,277,0.0,0.0,86,0.00,,---,0.00,VWS V14.01,2013-08-15 04:08:00,
2013-08-15 00:13:00,78.0,73.5,30.03,West,277,0.0,1.0,86,0.00,,---,0.00,VWS V14.01,2013-08-15 04:13:00,
2013-08-15 00:18:00,77.9,73.7,30.03,West,277,0.0,1.0,87,0.00,,---,0.00,VWS V14.01,2013-08-15 04:18:00,
2013-08-15 00:23:00,77.8,73.6,30.03,West,277,0.0,1.0,87,0.00,,---,0.00,VWS V14.01,2013-08-15 04:23:00,
2013-08-15 00:28:00,77.7,73.5,30.03,West,276,0.0,1.0,87,0.00,,---,0.00,VWS V14.01,2013-08-15 04:28:00,
2013-08-15 00:33:00,77.7,73.9,30.03,West,276,0.0,0.0,88,0.00,,---,0.00,VWS V14.01,2013-08-15 04:33:00,
2013-08-15 00:38:00,77.8,74.0,30.03,West,278,0.0,1.0,88,0.00,,---,0.00,VWS V14.01,2013-08-15 04:38:00,
2013-08-15 00:43:00,78.0,74.2,30.03,SSW,195,0.0,1.0,88,0.00,,---,0.00,VWS V14.01,2013-08-15 04:43:00,
2013-08-15 00:48:00,78.0,74.2,30.02,South,188,0.0,1.0,88,0.00,,---,0.00,VWS V14.01,2013-08-15 04:48:00,
2013-08-15 00:53:00,78.1,74.3,30.02,South,187,0.0,1.0,88,0.00,,---,0.00,VWS V14.01,2013-08-15 04:53:00,
2013-08-15 00:58:00,78.1,74.3,30.02,SW,217,0.0,2.0,88,0.00,,---,0.00,VWS V14.01,2013-08-15 04:58:00,
2013-08-15 01:03:00,78.2,74.4,30.02,SSW,194,1.0,1.0,88,0.00,,---,0.00,VWS V14.01,2013-08-15 05:03:00,
2013-08-15 01:09:00,78.2,74.4,30.02,South,170,0.0,1.0,88,0.00,,---,0.00,VWS V14.01,2013-08-15 05:09:00,
2013-08-15 01:14:00,78.1,74.3,30.01,SE,143,0.0,2.0,88,0.00,,---,0.00,VWS V14.01,2013-08-15 05:14:00,
2013-08-15 01:19:00,78.1,74.6,30.01,SSW,198,0.0,2.0,89,0.00,,---,0.00,VWS V14.01,2013-08-15 05:19:00,
2013-08-15 01:24:00,78.1,74.6,30.01,SW,217,0.0,2.0,89,0.00,,---,0.00,VWS V14.01,2013-08-15 05:24:00,
2013-08-15 01:29:00,78.1,74.6,30.01,SW,217,0.0,2.0,89,0.00,,---,0.00,VWS V14.01,2013-08-15 05:29:00,
2013-08-15 01:34:00,78.1,74.6,30.01,SW,231,0.0,1.0,89,0.00,,---,0.00,VWS V14.01,2013-08-15 05:34:00,
2013-08-15 01:39:00,78.0,74.5,30.01,South,186,0.0,2.0,89,0.00,,---,0.00,VWS V14.01,2013-08-15 05:39:00,
2013-08-15 01:44:00,78.0,74.5,30.01,SW,219,0.0,2.0,89,0.00,,---,0.00,VWS V14.01,2013-08-15 05:44:00,
2013-08-15 01:49:00,78.1,74.6,30.01,SSW,211,0.0,2.0,89,0.00,,---,0.00,VWS V14.01,2013-08-15 05:49:00,
2013-08-15 01:54:00,78.1,74.6,30.00,SSE,167,0.0,2.0,89,0.00,,---,0.00,VWS V14.01,2013-08-15 05:54:00,
2013-08-15 02:00:00,78.1,74.6,30.00,SSE,166,0.0,2.0,89,0.00,,---,0.00,VWS V14.01,2013-08-15 06:00:00,
2013-08-15 02:05:00,78.0,74.5,30.00,SSE,167,0.0,0.0,89,0.00,,---,0.00,VWS V14.01,2013-08-15 06:05:00,
2013-08-15 02:10:00,77.9,74.4,30.00,SSE,167,0.0,0.0,89,0.00,,---,0.00,VWS V14.01,2013-08-15 06:10:00,
2013-08-15 02:15:00,77.9,74.7,30.00,SSE,168,0.0,0.0,90,0.00,,---,0.00,VWS V14.01,2013-08-15 06:15:00,
2013-08-15 02:20:00,77.8,74.3,29.99,SSE,167,0.0,0.0,89,0.00,,---,0.00,VWS V14.01,2013-08-15 06:20:00,
2013-08-15 02:25:00,77.6,74.4,29.99,SSE,167,0.0,0.0,90,0.00,,---,0.00,VWS V14.01,2013-08-15 06:25:00,
2013-08-15 02:30:00,77.6,74.4,29.99,SSE,166,0.0,0.0,90,0.00,,---,0.00,VWS V14.01,2013-08-15 06:30:00,
2013-08-15 02:35:00,77.5,74.3,29.99,SSE,167,0.0,0.0,90,0.00,,---,0.00,VWS V14.01,2013-08-15 06:35:00,
2013-08-15 02:40:00,77.5,74.3,29.99,SSW,192,0.0,0.0,90,0.00,,---,0.00,VWS V14.01,2013-08-15 06:40:00,
2013-08-15 02:45:00,77.6,74.4,29.98,SSW,193,0.0,0.0,90,0.00,,---,0.00,VWS V14.01,2013-08-15 06:45:00,
2013-08-15 02:51:00,77.5,74.3,29.98,SSW,207,0.0,0.0,90,0.00,,---,0.00,VWS V14.01,2013-08-15 06:51:00,
2013-08-15 02:56:00,77.5,74.3,29.98,SSW,207,0.0,0.0,90,0.00,,---,0.00,VWS V14.01,2013-08-15 06:56:00,
2013-08-15 03:01:00,77.5,74.7,29.98,SSW,207,0.0,0.0,91,0.00,,---,0.00,VWS V14.01,2013-08-15 07:01:00,
2013-08-15 03:06:00,77.5,74.3,29.98,WNW,290,0.0,0.0,90,0.00,,---,0.00,VWS V14.01,2013-08-15 07:06:00,
2013-08-15 03:11:00,77.4,74.2,29.98,WNW,291,0.0,0.0,90,0.00,,---,0.00,VWS V14.01,2013-08-15 07:11:00,
2013-08-15 03:16:00,77.3,74.5,29.98,WNW,290,0.0,0.0,91,0.00,,---,0.00,VWS V14.01,2013-08-15 07:16:00,
2013-08-15 03:21:00,77.3,74.5,29.97,WNW,290,0.0,0.0,91,0.00,,---,0.00,VWS V14.01,2013-08-15 07:21:00,
2013-08-15 07:00:00,75.7,74.2,29.99,SW,225,0.0,1.0,95,0.00,,---,0.00,VWS V14.01,2013-08-15 11:00:00,
2013-08-15 07:39:00,76.0,74.5,30.00,WNW,285,0.0,0.0,95,0.00,,---,0.00,VWS V14.01,2013-08-15 11:39:00,
2013-08-15 07:47:00,76.4,74.9,30.01,WNW,285,0.0,0.0,95,0.00,,---,0.00,VWS V14.01,2013-08-15 11:47:00,
2013-08-15 07:52:00,76.9,75.4,30.01,WNW,285,0.0,0.0,95,0.00,,---,0.00,VWS V14.01,2013-08-15 11:52:00,
2013-08-15 07:57:00,77.5,76.0,30.01,WNW,284,0.0,0.0,95,0.00,,---,0.00,VWS V14.01,2013-08-15 11:57:00,
2013-08-15 08:02:00,77.9,76.0,30.01,SSW,201,0.0,0.0,94,0.00,,---,0.00,VWS V14.01,2013-08-15 12:02:00,
2013-08-15 08:08:00,78.4,76.5,30.01,SSW,201,0.0,0.0,94,0.00,,---,0.00,VWS V14.01,2013-08-15 12:08:00,
2013-08-15 08:13:00,79.2,77.0,30.01,South,185,0.0,0.0,93,0.00,,---,0.00,VWS V14.01,2013-08-15 12:13:00,
2013-08-15 08:18:00,79.6,76.8,30.01,SSE,149,0.0,3.0,91,0.00,,---,0.00,VWS V14.01,2013-08-15 12:18:00,
2013-08-15 08:23:00,79.8,76.3,30.01,SSE,148,0.0,3.0,89,0.00,,---,0.00,VWS V14.01,2013-08-15 12:23:00,
2013-08-15 08:28:00,80.0,76.5,30.01,SSE,148,0.0,3.0,89,0.00,,---,0.00,VWS V14.01,2013-08-15 12:28:00,
2013-08-15 08:33:00,80.2,76.7,30.01,SE,126,0.0,0.0,89,0.00,,---,0.00,VWS V14.01,2013-08-15 12:33:00,
2013-08-15 08:38:00,80.6,76.4,30.01,SE,129,0.0,1.0,87,0.00,,---,0.00,VWS V14.01,2013-08-15 12:38:00,
2013-08-15 08:43:00,81.4,76.8,30.01,SE,134,0.0,1.0,86,0.00,,---,0.00,VWS V14.01,2013-08-15 12:43:00,
2013-08-15 08:48:00,82.4,77.1,30.01,SW,215,1.0,1.0,84,0.00,,---,0.00,VWS V14.01,2013-08-15 12:48:00,
2013-08-15 08:53:00,83.2,77.1,30.01,SSW,199,1.0,1.0,82,0.00,,---,0.00,VWS V14.01,2013-08-15 12:53:00,
2013-08-15 08:58:00,83.8,77.0,30.01,SE,136,0.0,1.0,80,0.00,,---,0.00,VWS V14.01,2013-08-15 12:58:00,
2013-08-15 09:03:00,84.4,77.6,30.02,ENE,72,2.0,2.0,80,0.00,,---,0.00,VWS V14.01,2013-08-15 13:03:00,
2013-08-15 09:08:00,84.6,77.4,30.02,SSW,205,1.0,3.0,79,0.00,,---,0.00,VWS V14.01,2013-08-15 13:08:00,
2013-08-15 09:14:00,85.0,77.8,30.02,SSW,200,1.0,1.0,79,0.00,,---,0.00,VWS V14.01,2013-08-15 13:14:00,
2013-08-15 09:19:00,85.6,78.0,30.02,SE,143,1.0,2.0,78,0.00,,---,0.00,VWS V14.01,2013-08-15 13:19:00,
2013-08-15 09:24:00,85.5,77.5,30.02,SW,228,0.0,4.0,77,0.00,,---,0.00,VWS V14.01,2013-08-15 13:24:00,
2013-08-15 09:29:00,85.5,77.5,30.01,SW,222,1.0,2.0,77,0.00,,---,0.00,VWS V14.01,2013-08-15 13:29:00,
2013-08-15 09:34:00,85.7,77.3,30.02,SW,229,2.0,2.0,76,0.00,,---,0.00,VWS V14.01,2013-08-15 13:34:00,
2013-08-15 09:39:00,86.2,76.9,30.02,SSW,203,1.0,3.0,74,0.00,,---,0.00,VWS V14.01,2013-08-15 13:39:00,
2013-08-15 09:44:00,86.6,77.7,30.02,SSW,195,0.0,3.0,75,0.00,,---,0.00,VWS V14.01,2013-08-15 13:44:00,
2013-08-15 09:49:00,86.8,77.1,30.02,NE,50,2.0,3.0,73,0.00,,---,0.00,VWS V14.01,2013-08-15 13:49:00,
2013-08-15 09:54:00,86.9,77.6,30.02,West,279,1.0,3.0,74,0.00,,---,0.00,VWS V14.01,2013-08-15 13:54:00,
2013-08-15 09:59:00,87.1,77.8,30.02,SE,145,0.0,3.0,74,0.00,,---,0.00,VWS V14.01,2013-08-15 13:59:00,
2013-08-15 10:04:00,87.1,77.4,30.02,SW,226,2.0,3.0,73,0.00,,---,0.00,VWS V14.01,2013-08-15 14:04:00,
2013-08-15 10:10:00,87.3,77.6,30.02,SE,145,0.0,3.0,73,0.00,,---,0.00,VWS V14.01,2013-08-15 14:10:00,
2013-08-15 10:15:00,87.8,77.2,30.02,SSW,193,1.0,3.0,71,0.00,,---,0.00,VWS V14.01,2013-08-15 14:15:00,
2013-08-15 10:20:00,88.1,76.7,30.02,SE,124,1.0,3.0,69,0.00,,---,0.00,VWS V14.01,2013-08-15 14:20:00,
2013-08-15 10:25:00,87.9,77.3,30.02,ESE,119,0.0,3.0,71,0.00,,---,0.00,VWS V14.01,2013-08-15 14:25:00,
2013-08-15 10:30:00,88.3,77.3,30.02,ESE,110,0.0,0.0,70,0.00,,---,0.00,VWS V14.01,2013-08-15 14:30:00,
2013-08-15 10:35:00,89.2,78.1,30.02,South,176,0.0,1.0,70,0.00,,---,0.00,VWS V14.01,2013-08-15 14:35:00,
2013-08-15 10:40:00,89.2,76.8,30.02,SSW,212,2.0,4.0,67,0.00,,---,0.00,VWS V14.01,2013-08-15 14:40:00,
2013-08-15 10:45:00,89.3,76.5,30.02,SSE,152,1.0,4.0,66,0.00,,---,0.00,VWS V14.01,2013-08-15 14:45:00,
2013-08-15 10:50:00,88.9,76.5,30.02,South,177,0.0,4.0,67,0.00,,---,0.00,VWS V14.01,2013-08-15 14:50:00,
2013-08-15 10:55:00,88.9,76.5,30.02,East,99,0.0,4.0,67,0.00,,---,0.00,VWS V14.01,2013-08-15 14:55:00,
2013-08-15 11:02:00,89.7,76.8,30.02,ESE,113,0.0,1.0,66,0.00,,---,0.00,VWS V14.01,2013-08-15 15:02:00,
2013-08-15 11:07:00,89.9,75.6,30.02,SSE,162,1.0,6.0,63,0.00,,---,0.00,VWS V14.01,2013-08-15 15:07:00,
2013-08-15 11:12:00,90.1,75.8,30.02,SSE,165,0.0,2.0,63,0.00,,---,0.00,VWS V14.01,2013-08-15 15:12:00,
2013-08-15 11:17:00,90.1,75.3,30.02,WSW,245,2.0,3.0,62,0.00,,---,0.00,VWS V14.01,2013-08-15 15:17:00,
2013-08-15 11:22:00,89.4,75.2,30.02,SSW,195,1.0,3.0,63,0.00,,---,0.00,VWS V14.01,2013-08-15 15:22:00,
2013-08-15 11:27:00,89.2,75.4,30.02,SE,143,0.0,1.0,64,0.00,,---,0.00,VWS V14.01,2013-08-15 15:27:00,
2013-08-15 11:32:00,89.3,75.1,30.02,SSW,201,0.0,1.0,63,0.00,,---,0.00,VWS V14.01,2013-08-15 15:32:00,
2013-08-15 11:37:00,89.4,74.7,30.02,West,264,0.0,2.0,62,0.00,,---,0.00,VWS V14.01,2013-08-15 15:37:00,
2013-08-15 11:42:00,89.2,75.4,30.02,SE,134,0.0,2.0,64,0.00,,---,0.00,VWS V14.01,2013-08-15 15:42:00,
2013-08-15 11:47:00,88.8,75.5,30.02,SSW,200,0.0,3.0,65,0.00,,---,0.00,VWS V14.01,2013-08-15 15:47:00,
2013-08-15 11:52:00,88.4,75.6,30.02,SSE,152,1.0,4.0,66,0.00,,---,0.00,VWS V14.01,2013-08-15 15:52:00,
2013-08-15 11:57:00,88.3,76.0,30.02,WNW,293,1.0,4.0,67,0.00,,---,0.00,VWS V14.01,2013-08-15 15:57:00,
2013-08-15 12:03:00,88.9,76.5,30.01,SW,219,2.0,4.0,67,0.00,,---,0.00,VWS V14.01,2013-08-15 16:03:00,
2013-08-15 12:08:00,88.9,75.2,30.01,South,170,1.0,5.0,64,0.00,,---,0.00,VWS V14.01,2013-08-15 16:08:00,
2013-08-15 12:13:00,88.6,74.9,30.01,SSE,166,0.0,5.0,64,0.00,,---,0.00,VWS V14.01,2013-08-15 16:13:00,
2013-08-15 12:19:00,88.6,75.3,30.01,SE,138,0.0,2.0,65,0.00,,---,0.00,VWS V14.01,2013-08-15 16:19:00,
2013-08-15 12:24:00,88.8,76.0,30.01,WSW,255,1.0,3.0,66,0.00,,---,0.00,VWS V14.01,2013-08-15 16:24:00,
2013-08-15 12:30:00,89.0,75.7,30.01,SW,222,2.0,3.0,65,0.00,,---,0.00,VWS V14.01,2013-08-15 16:30:00,
2013-08-15 12:35:00,89.6,76.3,30.01,South,187,1.0,1.0,65,0.00,,---,0.00,VWS V14.01,2013-08-15 16:35:00,
2013-08-15 12:40:00,90.0,75.7,30.00,SSE,155,0.0,0.0,63,0.00,,---,0.00,VWS V14.01,2013-08-15 16:40:00,
2013-08-15 12:45:00,89.9,75.6,30.00,ESE,109,0.0,1.0,63,0.00,,---,0.00,VWS V14.01,2013-08-15 16:45:00,
2013-08-15 12:50:00,89.9,75.6,30.00,WSW,248,0.0,0.0,63,0.00,,---,0.00,VWS V14.01,2013-08-15 16:50:00,
2013-08-15 12:55:00,89.9,75.1,30.00,SSE,159,0.0,4.0,62,0.00,,---,0.00,VWS V14.01,2013-08-15 16:55:00,
2013-08-15 13:01:00,89.4,75.2,30.00,SSW,212,0.0,1.0,63,0.00,,---,0.00,VWS V14.01,2013-08-15 17:01:00,
2013-08-15 13:06:00,89.0,75.7,30.00,SE,136,1.0,1.0,65,0.00,,---,0.00,VWS V14.01,2013-08-15 17:06:00,
2013-08-15 13:11:00,88.7,76.8,30.00,WNW,288,0.0,3.0,68,0.00,,---,0.00,VWS V14.01,2013-08-15 17:11:00,
2013-08-15 13:16:00,88.1,77.1,30.00,East,89,0.0,1.0,70,0.00,,---,0.00,VWS V14.01,2013-08-15 17:16:00,
2013-08-15 13:21:00,87.6,77.0,30.00,South,181,1.0,1.0,71,0.00,,---,0.00,VWS V14.01,2013-08-15 17:21:00,
2013-08-15 13:26:00,87.5,76.9,30.00,ESE,122,1.0,4.0,71,0.00,,---,0.00,VWS V14.01,2013-08-15 17:26:00,
2013-08-15 13:32:00,87.5,76.9,30.00,ENE,73,1.0,1.0,71,0.00,,---,0.00,VWS V14.01,2013-08-15 17:32:00,
2013-08-15 13:37:00,87.0,75.6,30.00,ESE,113,1.0,5.0,69,0.00,,---,0.00,VWS V14.01,2013-08-15 17:37:00,
2013-08-15 13:43:00,86.6,75.7,30.00,SE,133,1.0,5.0,70,0.00,,---,0.00,VWS V14.01,2013-08-15 17:43:00,
2013-08-15 13:48:00,86.8,75.4,29.99,ESE,106,0.0,5.0,69,0.00,,---,0.00,VWS V14.01,2013-08-15 17:48:00,
2013-08-15 13:54:00,87.6,76.2,29.99,SE,144,2.0,6.0,69,0.00,,---,0.00,VWS V14.01,2013-08-15 17:54:00,
2013-08-15 13:59:00,88.1,76.2,29.99,NE,41,0.0,3.0,68,0.00,,---,0.00,VWS V14.01,2013-08-15 17:59:00,
2013-08-15 14:04:00,88.1,75.8,29.99,East,89,0.0,5.0,67,0.00,,---,0.00,VWS V14.01,2013-08-15 18:04:00,
2013-08-15 14:09:00,88.1,75.8,29.99,East,79,1.0,2.0,67,0.00,,---,0.00,VWS V14.01,2013-08-15 18:09:00,
2013-08-15 14:14:00,88.5,76.2,29.98,ENE,65,1.0,4.0,67,0.00,,---,0.00,VWS V14.01,2013-08-15 18:14:00,
2013-08-15 14:19:00,88.7,76.3,29.98,East,87,1.0,4.0,67,0.00,,---,0.00,VWS V14.01,2013-08-15 18:19:00,
2013-08-15 14:25:00,88.9,76.1,29.98,East,82,2.0,5.0,66,0.00,,---,0.00,VWS V14.01,2013-08-15 18:25:00,
2013-08-15 14:30:00,89.5,76.7,29.98,SW,226,2.0,6.0,66,0.00,,---,0.00,VWS V14.01,2013-08-15 18:30:00,
2013-08-15 14:35:00,90.0,76.2,29.97,SSE,158,1.0,5.0,64,0.00,,---,0.00,VWS V14.01,2013-08-15 18:35:00,
2013-08-15 14:40:00,90.3,76.5,29.97,ESE,108,1.0,5.0,64,0.00,,---,0.00,VWS V14.01,2013-08-15 18:40:00,
2013-08-15 14:45:00,90.3,75.5,29.97,South,169,0.0,5.0,62,0.00,,---,0.00,VWS V14.01,2013-08-15 18:45:00,
2013-08-15 14:50:00,90.6,76.3,29.97,ESE,105,1.0,5.0,63,0.00,,---,0.00,VWS V14.01,2013-08-15 18:50:00,
2013-08-15 14:55:00,90.4,76.6,29.97,SSW,193,1.0,5.0,64,0.00,,---,0.00,VWS V14.01,2013-08-15 18:55:00,
2013-08-15 15:01:00,90.2,76.4,29.97,East,96,4.0,4.0,64,0.00,,---,0.00,VWS V14.01,2013-08-15 19:01:00,
2013-08-15 15:06:00,90.6,76.8,29.97,ESE,123,2.0,4.0,64,0.00,,---,0.00,VWS V14.01,2013-08-15 19:06:00,
2013-08-15 15:11:00,90.4,76.6,29.97,ENE,58,1.0,5.0,64,0.00,,---,0.00,VWS V14.01,2013-08-15 19:11:00,
2013-08-15 15:17:00,89.5,76.7,29.96,ESE,110,1.0,7.0,66,0.00,,---,0.00,VWS V14.01,2013-08-15 19:17:00,
2013-08-15 15:22:00,89.5,76.7,29.96,SE,131,0.0,7.0,66,0.00,,---,0.00,VWS V14.01,2013-08-15 19:22:00,
2013-08-15 15:27:00,89.2,76.4,29.96,ESE,106,3.0,7.0,66,0.00,,---,0.00,VWS V14.01,2013-08-15 19:27:00,
2013-08-15 15:32:00,88.6,77.6,29.96,ESE,103,1.0,2.0,70,0.00,,---,0.00,VWS V14.01,2013-08-15 19:32:00,
2013-08-15 15:37:00,86.7,77.8,29.97,SE,128,1.0,3.0,75,0.07,,---,0.07,VWS V14.01,2013-08-15 19:37:00,
2013-08-15 15:42:00,83.6,77.2,29.96,ENE,65,3.0,5.0,81,0.16,,---,0.16,VWS V14.01,2013-08-15 19:42:00,
2013-08-15 15:47:00,82.3,77.7,29.96,ENE,69,0.0,5.0,86,0.16,,---,0.16,VWS V14.01,2013-08-15 19:47:00,
2013-08-15 15:52:00,82.1,78.2,29.96,NE,47,0.0,5.0,88,0.16,,---,0.16,VWS V14.01,2013-08-15 19:52:00,
2013-08-15 15:57:00,82.5,79.3,29.95,NE,46,0.0,5.0,90,0.16,,---,0.16,VWS V14.01,2013-08-15 19:57:00,
2013-08-15 16:02:00,82.5,78.9,29.95,SE,127,0.0,1.0,89,0.18,,---,0.18,VWS V14.01,2013-08-15 20:02:00,
2013-08-15 16:08:00,81.9,78.0,29.95,SE,136,0.0,1.0,88,0.19,,---,0.19,VWS V14.01,2013-08-15 20:08:00,
2013-08-15 16:13:00,82.0,78.1,29.95,ENE,76,0.0,3.0,88,0.20,,---,0.20,VWS V14.01,2013-08-15 20:13:00,
2013-08-15 16:18:00,82.3,78.4,29.95,East,101,0.0,3.0,88,0.20,,---,0.20,VWS V14.01,2013-08-15 20:18:00,
2013-08-15 16:23:00,82.5,77.9,29.95,ESE,113,0.0,3.0,86,0.20,,---,0.20,VWS V14.01,2013-08-15 20:23:00,
2013-08-15 16:29:00,82.9,77.6,29.95,East,101,0.0,3.0,84,0.20,,---,0.20,VWS V14.01,2013-08-15 20:29:00,
2013-08-15 16:34:00,83.6,77.9,29.95,South,176,0.0,2.0,83,0.20,,---,0.20,VWS V14.01,2013-08-15 20:34:00,
2013-08-15 16:39:00,83.8,77.0,29.95,SE,141,1.0,2.0,80,0.20,,---,0.20,VWS V14.01,2013-08-15 20:39:00,
2013-08-15 16:44:00,83.8,76.6,29.95,East,89,1.0,4.0,79,0.20,,---,0.20,VWS V14.01,2013-08-15 20:44:00,
2013-08-15 16:49:00,83.7,76.1,29.95,ESE,120,0.0,4.0,78,0.20,,---,0.20,VWS V14.01,2013-08-15 20:49:00,
2013-08-15 16:54:00,83.8,76.2,29.95,ENE,64,0.0,4.0,78,0.20,,---,0.20,VWS V14.01,2013-08-15 20:54:00,
2013-08-15 17:00:00,83.9,76.7,29.95,NNE,26,0.0,4.0,79,0.20,,---,0.20,VWS V14.01,2013-08-15 21:00:00,
2013-08-15 17:05:00,84.1,76.5,29.95,ENE,70,3.0,3.0,78,0.04,,---,0.20,VWS V14.01,2013-08-15 21:05:00,
2013-08-15 17:10:00,84.0,76.4,29.95,SE,127,1.0,3.0,78,0.04,,---,0.20,VWS V14.01,2013-08-15 21:10:00,
2013-08-15 17:15:00,83.8,76.2,29.95,ESE,120,3.0,4.0,78,0.04,,---,0.20,VWS V14.01,2013-08-15 21:15:00,
2013-08-15 17:20:00,83.0,75.4,29.95,SE,129,1.0,4.0,78,0.04,,---,0.20,VWS V14.01,2013-08-15 21:20:00,
2013-08-15 17:25:00,82.1,75.7,29.96,SW,233,0.0,4.0,81,0.04,,---,0.20,VWS V14.01,2013-08-15 21:25:00,
2013-08-15 17:30:00,81.6,75.6,29.96,East,101,0.0,0.0,82,0.00,,---,0.20,VWS V14.01,2013-08-15 21:30:00,
2013-08-15 17:35:00,81.2,75.6,29.96,ESE,113,0.0,0.0,83,0.00,,---,0.20,VWS V14.01,2013-08-15 21:35:00,
2013-08-15 17:41:00,81.0,75.7,29.96,SE,134,0.0,1.0,84,0.00,,---,0.20,VWS V14.01,2013-08-15 21:41:00,
2013-08-15 17:46:00,81.0,76.1,29.95,East,84,0.0,1.0,85,0.00,,---,0.20,VWS V14.01,2013-08-15 21:46:00,
2013-08-15 17:51:00,81.0,76.1,29.96,SE,136,0.0,3.0,85,0.00,,---,0.20,VWS V14.01,2013-08-15 21:51:00,
2013-08-15 17:56:00,81.0,75.7,29.96,ESE,123,0.0,3.0,84,0.00,,---,0.20,VWS V14.01,2013-08-15 21:56:00,
2013-08-15 18:02:00,81.0,75.3,29.96,SE,136,0.0,1.0,83,0.00,,---,0.20,VWS V14.01,2013-08-15 22:02:00,
2013-08-15 18:07:00,81.0,75.0,29.96,ENE,70,0.0,1.0,82,0.00,,---,0.20,VWS V14.01,2013-08-15 22:07:00,
2013-08-15 18:12:00,81.1,75.1,29.96,ESE,108,0.0,1.0,82,0.00,,---,0.20,VWS V14.01,2013-08-15 22:12:00,
2013-08-15 18:17:00,81.2,75.6,29.97,NE,51,0.0,1.0,83,0.00,,---,0.20,VWS V14.01,2013-08-15 22:17:00,
2013-08-15 18:22:00,81.3,75.7,29.97,East,94,0.0,1.0,83,0.00,,---,0.20,VWS V14.01,2013-08-15 22:22:00,
2013-08-15 18:27:00,81.5,75.8,29.97,South,183,0.0,1.0,83,0.00,,---,0.20,VWS V14.01,2013-08-15 22:27:00,
2013-08-15 18:33:00,81.6,76.3,29.97,SW,229,0.0,1.0,84,0.00,,---,0.20,VWS V14.01,2013-08-15 22:33:00,
2013-08-15 18:38:00,81.5,76.2,29.98,North,5,0.0,2.0,84,0.00,,---,0.20,VWS V14.01,2013-08-15 22:38:00,
2013-08-15 18:43:00,81.3,76.4,29.98,North,349,0.0,3.0,85,0.00,,---,0.20,VWS V14.01,2013-08-15 22:43:00,
2013-08-15 18:48:00,81.0,76.4,29.98,NNW,329,0.0,3.0,86,0.00,,---,0.20,VWS V14.01,2013-08-15 22:48:00,
2013-08-15 18:53:00,81.1,75.8,29.98,WSW,242,1.0,3.0,84,0.00,,---,0.20,VWS V14.01,2013-08-15 22:53:00,
2013-08-15 18:58:00,81.0,76.1,29.98,South,170,0.0,3.0,85,0.00,,---,0.20,VWS V14.01,2013-08-15 22:58:00,
2013-08-15 19:03:00,81.0,76.4,29.98,South,170,0.0,0.0,86,0.00,,---,0.20,VWS V14.01,2013-08-15 23:03:00,
2013-08-15 19:08:00,81.0,76.8,29.98,South,170,0.0,0.0,87,0.00,,---,0.20,VWS V14.01,2013-08-15 23:08:00,
2013-08-15 19:13:00,80.9,76.0,29.98,South,170,0.0,0.0,85,0.00,,---,0.20,VWS V14.01,2013-08-15 23:13:00,
2013-08-15 19:18:00,81.0,76.4,29.99,South,170,0.0,0.0,86,0.00,,---,0.20,VWS V14.01,2013-08-15 23:18:00,
2013-08-15 19:23:00,81.0,76.1,29.99,South,181,0.0,0.0,85,0.00,,---,0.20,VWS V14.01,2013-08-15 23:23:00,
2013-08-15 19:29:00,81.1,75.8,29.99,West,260,0.0,1.0,84,0.00,,---,0.20,VWS V14.01,2013-08-15 23:29:00,
2013-08-15 19:34:00,81.1,76.2,29.99,West,260,0.0,1.0,85,0.00,,---,0.20,VWS V14.01,2013-08-15 23:34:00,
2013-08-15 19:39:00,81.0,75.7,29.99,West,266,0.0,1.0,84,0.00,,---,0.20,VWS V14.01,2013-08-15 23:39:00,
2013-08-15 19:44:00,80.6,75.3,29.99,West,266,0.0,1.0,84,0.00,,---,0.20,VWS V14.01,2013-08-15 23:44:00,
2013-08-15 19:49:00,80.5,75.9,29.99,West,266,0.0,1.0,86,0.00,,---,0.20,VWS V14.01,2013-08-15 23:49:00,
2013-08-15 19:54:00,80.4,75.8,30.00,West,266,0.0,1.0,86,0.00,,---,0.20,VWS V14.01,2013-08-15 23:54:00,
2013-08-15 19:59:00,80.3,76.1,30.00,NNE,16,0.0,1.0,87,0.00,,---,0.20,VWS V14.01,2013-08-15 23:59:00,
2013-08-15 20:04:00,80.2,76.0,30.00,NNE,16,0.0,1.0,87,0.00,,---,0.20,VWS V14.01,2013-08-16 00:04:00,
2013-08-15 20:09:00,80.1,75.9,30.00,NNE,15,0.0,1.0,87,0.00,,---,0.20,VWS V14.01,2013-08-16 00:09:00,
2013-08-15 20:14:00,80.1,76.2,30.00,NNE,16,0.0,1.0,88,0.00,,---,0.20,VWS V14.01,2013-08-16 00:14:00,
2013-08-15 20:19:00,80.1,76.6,30.01,NNE,15,1.0,1.0,89,0.00,,---,0.20,VWS V14.01,2013-08-16 00:19:00,
2013-08-15 20:24:00,80.1,76.6,30.01,NNE,15,0.0,1.0,89,0.00,,---,0.20,VWS V14.01,2013-08-16 00:24:00,
2013-08-15 20:29:00,80.0,76.8,30.01,WNW,295,0.0,1.0,90,0.00,,---,0.20,VWS V14.01,2013-08-16 00:29:00,
2013-08-15 20:34:00,79.9,76.7,30.02,WNW,295,0.0,0.0,90,0.00,,---,0.20,VWS V14.01,2013-08-16 00:34:00,
2013-08-15 20:39:00,79.8,76.6,30.02,WNW,295,0.0,0.0,90,0.00,,---,0.20,VWS V14.01,2013-08-16 00:39:00,
2013-08-15 20:45:00,79.8,76.6,30.02,WNW,295,0.0,1.0,90,0.00,,---,0.20,VWS V14.01,2013-08-16 00:45:00,
2013-08-15 20:50:00,79.7,76.8,30.02,WNW,295,0.0,1.0,91,0.00,,---,0.20,VWS V14.01,2013-08-16 00:50:00,
2013-08-15 20:55:00,79.6,76.8,30.03,WNW,295,0.0,1.0,91,0.00,,---,0.20,VWS V14.01,2013-08-16 00:55:00,
2013-08-15 21:00:00,79.4,76.6,30.03,WNW,295,0.0,1.0,91,0.00,,---,0.20,VWS V14.01,2013-08-16 01:00:00,
2013-08-15 21:05:00,79.3,76.4,30.03,WNW,295,0.0,0.0,91,0.00,,---,0.20,VWS V14.01,2013-08-16 01:05:00,
2013-08-15 21:10:00,79.3,76.8,30.03,WNW,295,0.0,0.0,92,0.00,,---,0.20,VWS V14.01,2013-08-16 01:10:00,
2013-08-15 21:15:00,79.2,76.7,30.03,WNW,295,0.0,0.0,92,0.00,,---,0.20,VWS V14.01,2013-08-16 01:15:00,
2013-08-15 21:20:00,79.2,76.7,30.03,WNW,295,0.0,0.0,92,0.00,,---,0.20,VWS V14.01,2013-08-16 01:20:00,
2013-08-15 21:25:00,79.1,76.6,30.03,WNW,295,0.0,0.0,92,0.00,,---,0.20,VWS V14.01,2013-08-16 01:25:00,
2013-08-15 21:30:00,79.2,77.0,30.04,WNW,291,0.0,0.0,93,0.00,,---,0.20,VWS V14.01,2013-08-16 01:30:00,
2013-08-15 21:36:00,79.2,77.0,30.04,WNW,293,0.0,0.0,93,0.00,,---,0.20,VWS V14.01,2013-08-16 01:36:00,
2013-08-15 21:41:00,79.2,77.0,30.04,WNW,293,0.0,0.0,93,0.00,,---,0.20,VWS V14.01,2013-08-16 01:41:00,
2013-08-15 21:47:00,79.3,77.1,30.05,WNW,294,0.0,1.0,93,0.00,,---,0.20,VWS V14.01,2013-08-16 01:47:00,
2013-08-15 21:52:00,79.2,76.7,30.05,WNW,293,0.0,1.0,92,0.00,,---,0.20,VWS V14.01,2013-08-16 01:52:00,
2013-08-15 21:57:00,79.2,77.0,30.05,WSW,243,0.0,1.0,93,0.00,,---,0.20,VWS V14.01,2013-08-16 01:57:00,
2013-08-15 22:02:00,79.3,77.1,30.05,WSW,244,0.0,0.0,93,0.00,,---,0.20,VWS V14.01,2013-08-16 02:02:00,
2013-08-15 22:07:00,79.2,77.0,30.05,WSW,243,0.0,0.0,93,0.00,,---,0.20,VWS V14.01,2013-08-16 02:07:00,
2013-08-15 22:12:00,79.1,76.9,30.05,WSW,249,0.0,1.0,93,0.00,,---,0.20,VWS V14.01,2013-08-16 02:12:00,
2013-08-15 22:17:00,79.1,76.9,30.04,West,280,0.0,1.0,93,0.00,,---,0.20,VWS V14.01,2013-08-16 02:17:00,
2013-08-15 22:22:00,79.0,76.8,30.04,WSW,242,0.0,1.0,93,0.00,,---,0.20,VWS V14.01,2013-08-16 02:22:00,
2013-08-15 22:27:00,78.9,76.4,30.04,WSW,242,0.0,1.0,92,0.00,,---,0.20,VWS V14.01,2013-08-16 02:27:00,
2013-08-15 22:32:00,78.7,76.2,30.04,WSW,242,0.0,0.0,92,0.00,,---,0.20,VWS V14.01,2013-08-16 02:32:00,
2013-08-15 22:37:00,78.6,76.1,30.05,WSW,243,0.0,0.0,92,0.00,,---,0.20,VWS V14.01,2013-08-16 02:37:00,
2013-08-15 22:42:00,78.5,76.0,30.05,WSW,243,0.0,0.0,92,0.00,,---,0.20,VWS V14.01,2013-08-16 02:42:00,
2013-08-15 22:47:00,78.5,76.3,30.04,WSW,243,0.0,0.0,93,0.00,,---,0.20,VWS V14.01,2013-08-16 02:47:00,
2013-08-15 22:52:00,78.4,76.2,30.05,WSW,242,0.0,0.0,93,0.00,,---,0.20,VWS V14.01,2013-08-16 02:52:00,
2013-08-15 22:57:00,78.3,76.1,30.05,WSW,242,0.0,0.0,93,0.00,,---,0.20,VWS V14.01,2013-08-16 02:57:00,
2013-08-15 23:02:00,78.3,76.1,30.05,WSW,242,0.0,0.0,93,0.00,,---,0.20,VWS V14.01,2013-08-16 03:02:00,
2013-08-15 23:07:00,78.3,76.1,30.05,WSW,242,0.0,0.0,93,0.00,,---,0.20,VWS V14.01,2013-08-16 03:07:00,
2013-08-15 23:12:00,78.3,76.1,30.05,WSW,242,0.0,1.0,93,0.00,,---,0.20,VWS V14.01,2013-08-16 03:12:00,
2013-08-15 23:18:00,78.4,76.2,30.05,WSW,252,0.0,1.0,93,0.00,,---,0.20,VWS V14.01,2013-08-16 03:18:00,
2013-08-15 23:23:00,78.4,76.2,30.05,WSW,251,0.0,1.0,93,0.00,,---,0.20,VWS V14.01,2013-08-16 03:23:00,
2013-08-15 23:28:00,78.4,76.2,30.05,WSW,252,0.0,1.0,93,0.00,,---,0.20,VWS V14.01,2013-08-16 03:28:00,
2013-08-15 23:33:00,78.3,76.1,30.05,WSW,252,0.0,0.0,93,0.00,,---,0.20,VWS V14.01,2013-08-16 03:33:00,
2013-08-15 23:38:00,78.2,76.0,30.05,WSW,252,0.0,0.0,93,0.00,,---,0.20,VWS V14.01,2013-08-16 03:38:00,
2013-08-15 23:43:00,78.1,75.9,30.05,WSW,252,0.0,0.0,93,0.00,,---,0.20,VWS V14.01,2013-08-16 03:43:00,
2013-08-15 23:48:00,78.0,75.8,30.04,WSW,252,0.0,0.0,93,0.00,,---,0.20,VWS V14.01,2013-08-16 03:48:00,
2013-08-15 23:53:00,77.9,75.7,30.04,WSW,252,0.0,0.0,93,0.00,,---,0.20,VWS V14.01,2013-08-16 03:53:00,
2013-08-15 23:58:00,77.9,76.0,30.05,WSW,253,0.0,0.0,94,0.00,,---,0.20,VWS V14.01,2013-08-16 03:58:00,